User: anonymous   Login
Location: Noordwijk
(52.2400°N, 4.4500°E)
Time: 09:28:20
(UTC+00:00)
Language:

UWE-3 - Orbit

View from above orbital plane
View from above orbital plane
View from above satellite
View from above satellite

Ground track
Ground track

The orbit data is extracted from the following two-line orbital elements,

1 39446U 13066AG  22329.81052246  .00001907  00000-0  24843-3 0  9999
2 39446  97.7083 287.1357 0066276 283.7182  75.6658 14.80236779484328
Epoch (UTC): 25 November 2022 19:27:09
Eccentricity: 0.0066276
inclination: 97.7083°
perigee height: 582 km
apogee height: 675 km
right ascension of ascending node: 287.1357°
argument of perigee: 283.7182°
revolutions per day: 14.80236779
mean anomaly at epoch: 75.6658°
orbit number at epoch: 48432

The dashed part of the orbit path shows where the satellite is in the earth's shadow,  

DLR